Theta_e
332 327 325 324 325 318 313 309 293 299 298 292 290 289 291 297 298 296 296 298 297 301 303 302 301 304 301 299 300 300 300 300 298 293 292 303 322 324 325 330 335 341 341 340 343 345 347 347 351 351 352 352 353 352 352 351 351 350 350 349 349 348 348 348 348 347 347 348 348 348 348 348 347 346 347 346 346 346 347 346 346 346 346 347 348 347 347 347 347 346 346 345 342 341 341 340 339
325 323 323 319 317 312 304 303 294 291 291 288 289 290 296 296 295 296 296 298 300 302 302 301 301 303 303 302 300 304 300 303 302 302 313 322 322 327 330 331 333 340 340 340 342 344 346 346 348 352 352 352 352 352 351 351 351 350 350 349 348 348 349 347 347 347 348 348 348 348 348 348 347 347 347 346 346 346 346 346 346 346 347 347 347 346 347 346 346 345 344 343 341 340 339 338 337
323 321 323 318 315 311 308 303 294 290 286 284 289 293 295 294 294 296 299 301 301 302 302 302 302 303 303 301 300 300 297 303 304 312 316 323 316 316 329 330 331 338 340 340 342 344 345 345 346 351 352 352 352 352 351 351 350 350 349 349 348 348 348 348 347 348 349 348 348 348 348 348 348 347 346 346 346 346 345 346 346 346 346 347 347 347 346 346 344 343 342 341 340 338 336 336 335
327 324 322 312 305 307 301 297 293 292 288 286 289 293 294 295 297 298 299 301 301 301 303 304 302 304 302 299 300 303 299 303 305 311 314 317 314 317 328 330 327 336 340 341 342 343 344 345 346 350 352 352 352 352 351 351 350 349 348 348 348 347 348 348 348 348 348 349 348 348 348 348 348 347 347 347 346 345 345 346 346 346 346 346 347 346 345 344 343 342 340 339 338 337 335 334 333
320 323 322 312 306 300 300 296 292 288 288 288 287 293 295 296 298 299 300 301 301 300 302 303 300 304 304 303 302 298 299 305 306 310 315 318 321 329 328 329 327 335 340 340 341 343 343 343 345 349 352 352 352 352 351 350 350 349 348 348 348 348 348 348 348 348 348 348 348 348 348 348 347 347 347 346 345 345 345 345 346 346 346 346 346 345 344 343 341 340 339 338 337 335 333 331 331
322 320 319 311 303 306 299 290 289 290 291 291 290 293 295 298 300 300 300 302 303 300 302 301 301 301 301 302 303 299 302 301 306 315 318 319 326 330 329 328 326 335 339 339 340 341 343 342 346 348 351 352 352 351 351 351 350 349 348 348 348 348 348 349 348 348 348 348 348 348 349 348 348 348 347 346 345 345 345 345 345 346 346 345 344 343 343 341 340 339 337 336 335 334 330 329 329
316 313 309 305 305 301 293 289 289 290 293 295 293 295 297 298 299 299 299 300 303 302 302 303 302 300 298 302 304 304 308 308 311 313 318 321 324 330 330 326 322 333 337 339 339 341 342 341 347 350 350 351 352 351 351 350 350 349 348 348 348 348 348 349 348 348 348 348 348 348 348 349 348 348 347 346 345 345 345 345 345 345 344 344 343 342 340 339 337 336 335 334 334 332 328 327 326
318 309 308 297 297 295 292 289 292 290 294 296 296 296 298 299 299 300 298 299 300 301 302 302 302 299 299 302 299 302 311 317 316 321 322 323 323 328 328 325 321 331 335 337 339 340 340 341 347 348 350 351 351 351 351 350 350 349 349 348 348 348 348 348 348 348 348 348 348 348 348 348 347 347 347 345 345 344 344 344 343 343 343 342 340 339 339 338 336 334 333 333 332 330 326 325 324
312 310 306 297 294 296 292 293 294 295 297 297 298 303 305 300 300 300 299 300 301 301 301 301 300 297 298 300 299 303 309 316 320 323 324 326 327 328 328 323 321 325 335 334 338 339 340 340 345 347 348 351 351 351 351 350 350 349 349 348 349 348 348 348 348 348 349 349 349 348 349 348 347 347 346 345 344 344 343 342 341 342 342 340 339 338 337 335 335 334 333 333 331 328 325 324 324
308 305 299 297 296 292 290 288 292 293 296 298 297 299 300 300 300 301 300 299 301 301 301 301 300 300 299 299 298 303 305 314 316 319 323 326 328 328 327 324 323 327 334 333 337 339 340 338 341 344 347 349 350 349 350 350 350 350 349 349 348 348 348 348 348 348 348 348 348 349 349 347 347 347 345 344 343 343 342 341 340 340 340 339 338 337 335 334 333 334 332 332 330 327 325 323 323
302 303 302 292 289 290 290 289 290 292 294 297 299 300 300 300 300 299 299 300 299 300 301 302 300 299 300 299 299 304 312 312 312 313 315 323 326 326 326 327 326 330 333 331 336 338 338 339 337 341 343 345 347 348 349 350 350 350 349 349 349 349 348 349 348 348 348 348 349 349 348 348 347 346 345 344 343 341 341 341 340 339 339 338 337 338 337 333 333 332 332 331 329 326 324 323 322
300 299 297 291 289 290 289 291 291 292 295 295 298 300 299 300 299 298 297 297 297 296 299 302 301 302 298 298 298 306 310 311 311 312 314 319 322 323 324 326 329 330 331 332 336 336 337 338 338 338 338 339 343 346 346 347 348 349 349 349 349 349 349 349 349 349 349 349 349 349 348 348 347 345 344 343 342 341 340 340 340 339 338 337 336 334 332 331 331 331 331 330 327 325 324 322 320
304 299 293 292 290 292 291 292 292 296 291 295 297 300 299 299 299 298 298 297 295 296 301 302 303 300 296 298 299 307 309 311 314 314 316 315 318 321 325 327 330 330 332 332 335 335 336 338 338 339 338 335 336 339 342 343 345 346 347 348 347 347 348 348 348 348 349 349 349 349 348 346 345 345 344 343 342 341 340 339 338 338 337 337 336 333 332 332 331 331 331 328 326 325 324 322 319
304 304 297 293 290 292 292 290 290 292 289 296 297 299 300 298 300 299 296 297 296 298 302 303 304 301 297 298 296 302 304 309 313 314 314 315 318 322 323 324 326 328 329 331 333 335 335 337 337 338 339 337 340 336 336 339 342 344 344 345 345 345 346 346 347 347 347 347 346 345 342 342 343 344 343 343 341 340 340 338 337 337 337 336 333 332 331 331 331 330 330 328 326 324 323 321 319
303 303 296 293 290 290 291 293 291 291 292 294 298 299 298 301 300 299 301 298 297 300 303 306 304 299 293 298 293 300 303 311 311 312 316 318 320 322 321 323 326 324 325 330 331 333 336 336 337 337 337 338 339 339 339 338 336 340 341 341 342 342 343 344 345 343 343 343 341 339 337 337 337 338 340 340 339 336 335 335 336 336 337 335 332 331 330 330 330 330 329 327 326 324 322 320 318
305 301 295 293 289 291 291 293 295 291 293 296 298 298 298 300 301 300 300 300 300 303 303 299 305 300 298 299 301 301 303 310 310 314 314 317 316 320 321 322 324 324 322 327 329 329 333 335 336 336 337 337 338 338 337 337 333 333 336 338 338 340 340 341 341 338 338 335 336 334 333 334 330 332 329 333 333 333 331 326 332 335 334 333 333 331 330 330 329 329 327 326 325 323 321 318 315
303 298 293 289 289 291 292 293 293 291 294 296 298 299 298 297 300 302 302 302 300 300 300 300 301 304 301 303 305 304 310 311 313 312 313 314 313 315 318 318 319 321 325 323 327 329 329 333 334 335 336 337 337 337 337 336 336 331 332 332 333 335 336 337 338 333 330 330 330 328 328 333 333 333 331 331 326 328 323 322 331 333 334 334 334 332 330 329 329 328 327 326 325 322 317 314 313
299 294 290 289 289 292 293 297 297 297 296 296 298 298 296 295 297 300 301 300 298 299 298 300 301 302 304 305 305 306 310 311 312 311 310 311 311 311 313 315 314 321 323 324 324 327 328 329 332 334 334 335 336 337 338 338 337 332 335 334 334 333 331 330 334 335 329 334 327 330 331 328 329 330 329 326 326 324 322 321 325 330 333 330 332 332 330 329 329 327 326 325 324 320 315 303 305
297 294 292 288 290 293 297 298 297 296 295 298 298 297 298 298 298 299 298 295 297 298 300 299 300 301 301 301 303 307 309 308 311 310 310 310 310 310 313 314 316 316 318 321 324 326 328 329 328 331 333 335 335 336 337 337 338 335 334 334 333 330 331 332 334 333 333 333 331 330 327 327 327 326 326 324 323 321 321 320 323 327 330 328 329 330 331 329 328 327 326 325 322 316 304 299 297
299 295 291 290 295 297 298 298 297 299 299 298 298 299 298 299 298 301 298 296 295 295 298 299 298 300 301 299 300 303 308 308 308 308 308 308 310 310 309 311 314 315 318 321 323 327 327 328 329 329 330 333 334 335 335 334 335 334 335 334 333 333 332 333 336 335 334 333 330 329 328 326 325 324 322 319 320 319 319 319 322 324 325 324 323 325 328 330 328 326 325 323 317 307 298 298 297
299 296 291 293 296 297 297 298 298 300 300 300 299 297 297 298 299 300 297 295 296 298 299 300 300 301 301 300 302 302 301 304 305 306 306 305 306 309 310 311 313 315 317 319 320 324 327 328 328 329 328 330 332 333 333 332 332 333 334 335 334 333 332 333 335 335 334 333 330 329 327 326 325 324 322 321 319 318 317 318 320 320 319 317 318 314 316 318 319 316 315 311 305 303 300 298 296
300 297 298 297 297 297 299 299 299 300 299 299 297 296 298 299 299 298 297 295 296 298 300 300 301 301 301 302 303 302 301 302 299 303 305 305 305 305 305 304 305 310 314 317 320 323 325 328 329 330 329 328 330 331 332 331 329 332 333 334 334 333 333 333 335 335 333 332 329 327 326 326 325 324 322 320 318 317 316 316 317 316 314 315 316 314 313 313 310 310 309 307 303 301 300 299 298
295 296 297 298 298 298 299 299 298 299 299 298 297 298 300 299 297 298 297 298 300 303 302 302 303 303 303 302 301 301 301 300 299 300 300 302 303 304 305 305 304 304 311 316 320 322 325 326 328 329 329 329 328 330 330 328 328 331 332 333 333 332 333 332 333 334 334 332 328 326 325 324 323 322 320 319 317 317 316 315 315 315 315 314 314 314 312 311 309 308 307 306 303 299 297 297 297
299 295 296 299 299 299 300 298 296 296 297 298 299 301 299 298 296 298 297 301 302 302 302 302 303 304 302 301 301 301 302 301 300 300 300 301 301 303 303 303 304 303 305 312 317 321 322 325 327 327 328 328 328 328 328 328 327 327 330 330 332 330 331 331 332 333 333 332 329 326 324 325 322 319 318 318 317 316 316 315 315 315 314 314 313 314 312 310 308 307 306 305 303 298 297 296 297
296 294 297 298 298 298 297 296 296 297 297 298 297 297 298 298 298 298 299 301 303 303 302 302 302 302 302 300 300 299 299 300 300 299 300 301 301 302 303 302 302 302 302 305 312 319 322 324 325 326 327 327 328 328 327 327 326 326 325 328 330 326 330 330 331 330 331 331 329 327 325 324 322 320 318 318 316 316 315 315 315 315 314 314 312 311 312 310 308 306 305 305 303 298 296 296 296
296 296 297 296 296 297 297 297 298 298 299 298 296 296 297 298 299 296 300 302 303 303 300 300 300 300 300 300 299 297 297 298 299 300 301 301 302 302 302 302 304 303 303 303 308 315 318 322 324 325 326 327 327 327 327 325 325 325 324 325 327 325 328 326 326 327 329 328 327 326 324 325 323 320 318 317 316 315 315 315 314 314 314 314 313 312 311 311 308 304 302 303 300 297 297 297 295
298 295 295 295 295 295 297 296 298 298 296 297 296 295 296 297 297 292 297 300 301 299 299 299 297 298 299 299 298 297 298 299 299 300 300 300 300 300 301 301 301 302 302 302 303 307 312 320 322 324 325 324 325 326 326 326 324 325 325 323 322 323 324 324 324 325 325 326 327 325 323 323 323 320 319 317 316 315 314 314 314 313 313 313 314 312 309 311 307 304 301 299 297 296 295 295 294
296 295 295 295 296 296 297 297 297 297 295 296 296 295 296 295 296 295 299 301 300 298 298 298 297 296 297 298 298 298 298 298 299 299 298 298 299 299 299 299 300 300 300 301 301 304 309 318 322 322 324 324 324 325 324 325 324 322 322 323 322 322 320 322 322 322 321 323 323 324 323 322 321 319 319 317 317 314 313 313 313 312 312 312 313 311 307 307 305 301 298 297 296 295 295 294 294
296 296 292 293 294 294 296 295 297 295 295 295 295 294 293 293 292 297 299 299 299 297 296 296 296 296 296 297 297 297 296 297 297 297 297 298 299 299 298 299 299 299 300 301 302 302 304 308 315 319 321 320 323 324 324 324 323 321 321 322 323 322 322 321 321 322 322 322 322 322 323 322 320 319 318 318 315 315 313 313 312 312 312 311 311 309 305 302 300 298 297 297 295 294 294 294 294
297 295 292 292 290 290 296 297 296 295 295 295 296 286 287 293 295 296 299 297 297 299 299 297 296 297 297 296 296 296 296 296 295 296 297 297 298 298 297 298 299 299 299 300 301 301 303 308 312 315 317 319 320 321 320 321 321 318 319 320 320 322 319 319 319 320 320 320 321 321 322 321 319 318 317 315 315 314 313 312 312 310 310 309 309 305 304 300 298 297 296 295 296 294 293 293 292
291 293 292 288 287 286 295 296 295 294 296 295 296 288 287 294 296 297 298 297 297 296 297 296 296 297 296 295 295 295 295 295 295 296 296 297 297 297 297 298 299 299 299 299 300 300 302 305 310 313 312 313 315 316 317 317 316 317 316 316 318 318 320 319 317 318 317 318 319 318 320 319 318 317 316 316 314 313 312 310 310 310 308 307 306 302 302 298 297 296 295 294 294 292 292 293 292
291 289 284 286 286 287 293 298 296 294 295 295 295 287 289 294 297 297 297 297 296 295 296 296 295 295 295 295 294 294 294 295 295 296 296 296 296 296 297 297 298 298 298 299 300 300 301 303 307 309 310 312 312 312 312 313 315 314 314 315 317 315 316 318 316 318 317 314 316 317 317 318 317 316 315 314 314 312 311 310 308 307 305 305 303 299 299 297 296 296 295 294 292 291 292 291 291
289 288 283 286 286 287 292 296 295 295 293 294 294 289 288 291 295 298 298 296 296 294 295 296 294 295 294 294 294 293 293 294 294 294 295 295 296 296 296 297 297 297 298 298 299 300 300 301 303 305 305 308 312 312 312 313 314 314 315 315 314 314 315 316 315 316 316 316 314 315 315 317 315 314 313 313 312 311 309 310 306 306 304 303 300 298 297 296 296 296 294 293 294 291 291 290 289
285 288 286 287 287 288 287 292 294 294 293 290 292 289 290 293 293 297 298 297 295 294 293 293 294 294 293 293 293 293 292 292 292 293 294 295 295 295 296 297 296 297 297 298 298 299 299 300 301 302 303 305 310 311 311 312 313 313 313 313 313 315 314 314 314 315 315 313 313 313 315 315 315 313 312 311 310 310 309 308 306 305 303 302 300 297 296 294 295 295 294 291 292 291 290 290 290
284 286 286 288 288 289 289 290 292 293 294 292 289 289 290 291 293 295 298 299 296 294 293 294 293 293 293 292 292 292 292 291 292 293 293 294 294 295 295 295 295 296 296 297 297 298 299 300 301 301 301 302 305 310 310 311 311 311 310 311 311 312 312 313 313 313 311 313 312 312 313 314 314 314 311 311 311 308 307 306 305 303 302 300 299 298 296 294 294 294 294 291 290 291 290 290 290
290 290 289 288 286 287 289 293 295 295 292 290 289 290 290 291 293 294 296 298 295 294 294 294 293 293 292 292 291 291 291 291 293 293 293 293 294 294 294 295 295 295 295 295 296 297 298 299 299 299 300 301 302 306 308 308 308 307 308 308 309 308 310 310 311 310 311 311 310 311 310 312 313 314 312 312 311 309 307 306 305 302 301 300 299 297 295 294 294 292 292 292 290 290 289 290 291
292 290 289 288 288 288 291 292 295 293 292 289 291 290 289 290 291 294 296 297 295 293 293 292 293 292 292 291 291 291 290 291 292 292 292 292 293 293 293 294 294 294 294 294 295 295 296 297 297 297 299 300 300 301 304 305 305 305 305 304 303 304 305 306 308 308 308 307 308 309 308 309 311 312 311 310 310 308 307 304 304 302 300 300 299 299 297 295 294 294 292 292 291 289 288 289 291
290 289 287 287 288 288 291 293 295 293 292 287 288 289 288 289 292 295 297 294 292 292 292 292 291 291 291 291 290 290 290 291 291 291 291 291 292 292 292 293 293 292 293 293 293 294 295 296 296 297 298 299 299 299 300 304 303 302 302 301 302 303 304 304 304 304 304 305 305 306 306 306 308 308 308 308 307 306 305 303 302 302 300 300 299 298 296 295 293 292 291 289 290 291 289 290 291
290 289 286 286 286 289 292 293 295 293 291 288 286 288 288 291 293 296 295 292 293 293 293 292 291 291 290 290 289 289 289 289 290 290 290 290 290 291 291 292 292 292 292 292 293 293 294 294 295 296 297 297 298 298 299 300 302 302 302 300 301 300 301 301 301 301 302 302 302 302 302 302 302 302 303 303 305 305 304 302 300 300 300 300 299 297 295 294 293 293 291 292 289 288 289 291 291
289 288 286 286 288 289 284 288 289 291 290 287 287 288 287 290 293 293 293 293 293 293 293 292 292 290 290 290 289 289 288 288 288 288 289 289 289 290 290 290 291 291 292 292 292 292 293 293 293 294 295 296 297 298 298 299 299 300 300 300 300 301 300 299 300 300 300 300 301 300 300 299 299 299 299 299 300 302 303 302 301 299 299 298 299 298 296 295 293 292 292 292 291 289 288 289 291
288 289 288 287 288 288 288 288 290 290 290 290 289 287 285 289 291 290 291 293 293 292 292 291 292 291 291 291 290 290 288 288 288 288 288 288 288 288 289 290 290 290 291 291 292 292 293 292 292 293 294 295 295 296 297 298 298 298 298 299 298 298 299 298 297 297 297 296 297 298 299 298 298 298 297 297 298 299 299 300 300 298 298 297 298 297 296 296 295 294 293 292 290 291 289 288 290
286 288 291 290 290 290 289 289 288 283 284 285 289 279 279 285 289 289 291 290 290 291 290 289 290 290 289 289 289 289 289 289 288 288 288 288 288 288 288 289 289 289 289 290 291 292 292 292 292 292 293 294 294 295 296 297 296 296 296 295 294 294 294 294 294 294 296 295 297 296 297 297 297 296 296 297 296 296 297 297 298 297 297 298 297 297 297 295 295 294 293 293 291 291 290 288 288
287 288 291 292 292 290 288 288 287 280 279 286 288 282 277 283 287 289 291 288 289 289 289 289 289 289 288 288 288 288 288 288 288 288 288 288 287 288 288 288 288 288 289 289 290 291 291 292 292 292 292 292 293 293 294 295 294 294 294 294 293 293 292 293 294 295 294 294 294 296 296 296 296 296 296 294 295 295 295 295 295 296 295 295 296 296 295 295 295 294 294 293 292 292 288 288 288
285 287 291 290 289 288 288 287 286 282 284 286 288 284 280 280 285 291 292 290 287 287 287 287 288 288 287 288 288 287 287 287 287 287 287 288 288 287 287 288 288 288 288 288 289 290 290 290 291 291 292 292 292 292 292 293 293 293 292 292 292 292 292 292 293 294 295 294 294 294 295 294 294 295 295 294 293 294 294 295 294 294 294 293 293 294 295 295 295 295 294 294 293 292 290 289 289
286 290 290 289 289 288 287 287 283 282 282 280 282 286 281 278 282 290 293 286 285 285 286 286 287 287 287 287 287 287 287 287 287 287 287 287 287 287 287 287 288 288 288 288 288 288 289 289 290 290 290 290 291 291 291 291 292 291 291 291 290 291 292 292 292 293 293 293 293 293 293 294 293 293 293 294 292 293 293 293 292 292 293 293 291 293 292 292 292 292 293 293 293 292 291 289 288
291 290 290 289 289 288 287 283 284 281 280 277 281 284 278 280 283 286 288 287 284 285 286 286 286 286 286 286 286 287 287 287 287 287 287 287 287 287 287 287 288 288 288 288 288 288 288 288 289 289 289 289 290 289 290 290 290 290 290 289 289 289 290 290 290 290 290 291 291 291 292 292 292 293 293 292 292 292 292 292 292 292 292 293 292 291 290 290 290 289 290 291 292 292 292 290 289
291 290 288 285 284 284 282 281 280 279 274 280 282 284 284 276 282 285 285 286 286 286 286 286 286 286 286 286 286 286 286 286 286 286 286 286 287 287 287 287 287 287 287 287 287 287 287 287 287 287 288 289 289 289 288 288 289 289 288 288 288 288 289 289 288 288 289 289 289 290 290 291 291 291 292 292 292 292 292 291 291 291 291 291 292 292 292 291 290 290 290 289 289 290 291 291 290
289 284 283 284 283 280 281 278 279 274 273 277 281 284 285 275 278 282 285 287 289 288 286 285 285 285 285 285 285 285 285 285 285 285 285 286 286 286 286 286 286 286 287 286 286 286 286 286 286 286 286 287 288 289 288 288 287 287 287 287 287 288 288 288 287 287 287 287 288 288 289 289 289 290 290 290 291 291 292 292 291 290 291 291 292 292 292 292 291 290 289 288 288 288 289 289 289
286 283 282 278 274 276 273 276 273 273 275 278 281 282 281 282 285 286 285 285 287 288 288 286 285 284 285 285 285 285 284 284 285 284 284 284 284 285 285 285 286 285 286 285 286 285 285 285 285 285 285 286 287 287 287 287 286 286 286 286 286 287 287 287 287 286 287 287 287 287 287 287 288 288 288 288 289 290 290 291 292 291 291 291 291 290 291 291 290 289 289 287 287 287 287 287 287
284 283 279 276 273 272 268 269 272 272 276 280 282 284 280 282 285 285 284 284 286 287 286 286 285 284 284 284 284 284 284 284 284 284 283 283 284 285 285 284 285 284 285 285 285 284 284 284 284 284 284 285 285 286 286 286 286 286 286 285 285 285 285 285 285 285 285 286 286 286 286 286 286 286 287 287 288 289 289 290 290 290 289 288 288 289 289 289 289 289 289 287 286 287 285 285 286
285 284 286 281 276 273 272 273 272 273 274 280 281 280 276 279 282 283 284 284 285 285 285 285 284 284 284 283 283 283 283 283 284 285 285 284 286 285 285 285 285 284 284 284 283 283 282 282 283 283 283 283 284 284 285 285 285 285 285 285 285 285 284 284 284 285 285 285 285 285 285 285 285 286 286 287 287 287 287 287 288 288 288 289 289 289 290 288 288 288 288 287 287 286 285 285 285
284 285 287 281 282 282 279 278 275 274 276 277 277 279 278 280 284 284 284 284 284 284 284 284 283 283 282 282 283 283 283 283 283 284 284 285 286 285 285 286 285 283 283 283 283 283 282 282 282 282 282 282 283 283 283 284 284 284 284 283 284 284 284 283 283 284 284 284 284 284 284 284 285 285 285 286 286 286 285 286 286 286 287 288 288 287 287 287 287 287 287 287 287 288 286 285 285
284 287 281 283 286 286 279 279 280 277 277 275 277 282 283 283 283 283 283 283 282 283 282 282 282 282 282 281 282 283 284 284 284 284 284 284 284 285 284 284 284 284 283 283 283 282 281 281 281 281 282 282 282 282 282 282 283 283 283 283 282 282 282 281 282 282 282 283 283 283 283 283 284 284 284 285 285 284 284 284 284 285 285 285 286 286 286 286 285 286 286 286 286 287 286 285 285
285 282 283 287 290 287 283 273 275 276 274 276 281 277 278 280 274 282 281 281 280 281 281 282 282 282 281 282 283 284 284 284 283 283 283 283 284 285 284 283 284 284 283 282 283 283 282 281 280 280 280 281 281 281 281 281 280 281 280 280 281 280 280 280 281 281 281 281 281 282 282 282 282 282 283 284 283 283 283 284 284 284 284 284 284 285 285 286 285 286 286 286 286 285 285 286 285
289 286 290 286 279 279 281 279 273 272 273 271 277 282 281 281 281 280 280 279 280 281 281 281 281 281 282 282 283 283 284 284 283 283 283 283 282 282 282 283 283 283 283 282 282 283 282 281 280 280 280 280 280 281 280 280 279 281 282 280 281 280 279 279 279 279 279 280 280 281 280 281 282 282 282 282 283 283 282 283 283 283 283 284 284 284 284 285 284 285 285 286 286 285 285 285 286
291 290 287 286 284 281 278 280 277 279 276 278 276 281 275 281 281 282 282 282 281 281 280 280 281 281 281 281 281 282 282 283 283 282 282 282 282 282 282 283 283 283 283 282 282 281 281 281 281 280 279 279 279 280 279 280 280 279 280 279 279 280 280 280 279 279 278 278 279 279 279 280 281 281 281 281 282 283 284 284 284 283 283 284 284 284 284 284 284 284 284 285 285 284 284 285 285
285 284 281 284 283 284 283 280 279 276 274 276 277 276 279 281 285 283 284 283 283 282 281 281 281 281 281 281 282 282 281 281 281 281 281 281 281 281 282 282 282 282 282 282 281 282 282 281 280 280 280 280 279 280 279 279 280 281 280 280 279 279 279 279 278 279 278 278 278 279 279 279 279 280 280 281 281 282 283 283 284 284 284 284 284 284 285 285 284 284 284 284 284 284 284 284 284
285 283 281 283 281 278 276 276 282 277 278 274 276 276 278 284 285 284 283 283 283 282 282 281 281 282 282 282 282 282 282 281 281 281 281 281 281 282 281 282 281 282 283 283 283 282 281 281 281 281 280 280 280 280 280 279 279 279 278 277 277 278 278 279 278 278 277 278 278 278 278 278 278 279 279 280 280 281 281 282 282 283 283 284 284 284 284 284 284 284 284 285 285 284 284 284 284
Wind_Speed
7 7 6 6 2 1 3 2 2 3 3 1 1 2 1 1 1 3 3 1 2 1 1 1 1 3 0 0 2 2 3 1 5 2 2 1 1 2 4 4 5 9 10 8 9 10 11 14 16 16 17 16 16 16 14 14 14 14 13 13 12 12 11 11 11 11 12 11 11 10 10 11 10 10 9 9 8 7 7 5 4 3 4 5 7 8 9 10 11 11 11 11 10 9 8 8 8
6 6 6 4 3 3 1 1 3 2 4 3 2 1 0 1 6 2 2 4 2 1 2 1 1 0 2 2 1 0 3 8 3 1 0 1 0 3 4 5 7 10 8 8 8 9 9 12 16 17 16 16 16 15 16 14 14 14 13 13 12 12 12 12 12 13 12 11 11 11 11 10 10 9 9 9 8 8 7 5 4 3 5 7 8 8 8 9 11 11 10 10 9 8 7 7 8
5 6 6 6 1 1 1 2 1 2 5 4 2 0 1 6 3 2 3 2 4 3 1 1 0 1 1 4 2 1 1 1 2 1 1 1 3 3 4 4 5 9 10 8 9 9 8 10 15 17 17 17 17 15 15 15 15 13 13 13 12 13 12 12 13 13 12 12 11 11 11 11 10 10 9 8 9 8 7 6 4 4 6 8 8 8 8 9 10 10 9 8 8 7 6 7 7
4 1 1 3 2 3 1 2 3 2 1 3 1 3 2 2 2 2 3 3 3 3 0 1 1 1 1 2 2 1 3 1 1 4 1 3 4 4 5 5 6 7 8 8 9 9 8 10 15 16 17 17 17 15 15 15 14 15 14 14 13 13 13 13 13 13 12 11 11 10 11 11 10 10 10 9 8 8 7 6 6 6 7 8 9 8 8 10 10 9 8 7 5 6 6 6 7
3 4 1 1 2 3 1 0 1 2 3 2 3 2 1 2 2 3 4 1 1 3 1 1 1 1 2 1 1 1 1 1 1 2 2 2 1 5 5 5 4 8 9 8 9 9 8 13 14 15 15 16 17 16 16 15 15 16 15 15 15 13 14 13 13 13 12 11 11 10 10 10 11 10 11 10 10 9 8 7 7 8 9 9 10 9 9 8 8 7 5 5 4 5 5 6 7
4 2 1 2 1 2 3 3 3 1 6 2 2 0 1 1 3 1 3 1 1 3 2 1 1 0 1 1 3 1 3 0 4 1 4 5 5 6 6 4 4 8 9 8 9 8 8 14 13 15 15 15 16 15 15 15 17 16 16 16 15 15 14 14 13 13 12 12 11 11 11 11 11 11 11 12 11 10 9 8 8 9 9 9 8 8 8 6 6 5 5 4 4 5 5 6 6
3 5 1 3 1 2 3 1 3 3 4 4 3 1 2 1 3 3 3 1 1 2 1 1 1 1 1 2 2 1 3 1 2 2 5 5 5 6 6 5 4 6 10 9 8 9 10 14 14 15 15 14 16 14 14 14 16 16 16 16 16 16 15 14 13 13 12 12 12 11 11 11 12 11 12 12 12 11 11 9 10 9 8 7 7 6 6 5 4 3 3 2 3 4 4 5 5
0 2 1 3 1 3 1 1 4 3 2 1 4 4 1 2 3 1 2 2 1 0 0 2 2 2 3 2 1 2 4 2 3 2 4 7 5 6 5 5 4 5 8 8 8 7 13 16 14 15 15 14 14 14 15 15 15 15 15 15 16 15 15 15 14 14 13 13 12 11 11 11 11 13 12 13 12 12 12 10 9 9 9 7 5 2 3 5 4 2 3 3 3 4 3 5 5
2 1 1 4 2 1 1 2 3 3 1 0 1 3 5 3 3 1 1 1 1 1 2 2 3 2 2 6 2 2 3 1 3 4 6 6 7 7 5 4 5 5 6 7 7 7 10 16 15 15 15 15 15 15 15 15 16 16 15 15 15 15 15 14 14 13 12 12 12 12 12 12 12 13 14 14 13 12 11 10 6 8 9 7 6 4 3 1 5 5 5 4 4 4 4 4 5
1 3 2 1 2 1 1 5 3 2 0 1 2 2 3 1 1 1 0 3 1 0 3 3 2 1 1 3 4 2 1 2 3 2 3 5 6 6 5 5 4 6 6 5 6 7 8 15 18 16 15 15 15 16 15 15 16 15 15 15 15 14 14 13 13 13 12 11 12 12 12 12 14 13 13 12 12 12 10 10 7 7 7 7 6 6 5 7 3 7 4 5 5 5 4 4 5
2 2 2 2 4 1 1 3 3 6 2 1 3 1 3 2 2 1 1 2 2 1 1 0 2 1 0 3 3 1 0 5 4 5 4 4 5 5 5 4 5 7 7 5 5 7 7 10 18 17 16 15 15 15 15 16 16 16 16 15 16 14 13 12 13 13 11 12 11 11 11 14 14 14 15 13 13 12 11 10 8 8 8 8 8 9 9 7 6 5 4 5 7 6 5 5 5
2 2 3 1 0 1 2 2 5 6 5 1 1 2 1 3 1 2 3 6 5 5 2 1 0 1 1 1 2 1 1 2 4 4 4 4 5 4 5 4 3 6 7 7 6 6 7 8 10 14 16 16 15 15 15 15 16 15 15 15 15 14 13 13 12 11 11 10 10 11 12 14 14 16 15 14 14 13 12 10 9 8 8 8 7 5 4 4 5 5 6 9 7 6 6 5 5
1 1 3 2 1 1 2 1 3 3 2 1 1 1 1 2 1 0 1 1 3 4 0 1 0 2 2 1 2 1 1 4 2 4 3 3 4 3 2 3 2 4 6 8 7 7 8 8 9 9 11 16 15 14 14 15 15 15 15 15 14 14 13 12 12 11 10 10 9 10 10 12 12 15 14 14 14 13 12 10 9 8 9 8 8 7 7 6 7 8 11 9 8 7 7 6 6
1 0 1 1 0 1 1 2 1 1 2 2 1 1 0 1 1 2 2 3 5 1 2 3 1 1 4 2 5 2 5 3 3 4 2 1 2 2 2 3 3 3 5 7 8 8 7 8 8 9 10 10 10 12 13 14 14 14 14 14 14 13 13 12 12 11 10 9 9 9 9 11 11 11 13 13 13 11 10 10 10 8 9 10 8 8 7 7 8 8 11 9 8 8 7 7 6
1 0 1 1 3 3 2 1 2 1 1 2 3 1 1 2 1 1 0 1 6 3 0 0 3 3 3 1 4 3 6 6 5 3 3 3 3 2 1 2 4 3 4 5 6 8 8 8 9 8 8 8 9 8 8 11 14 14 13 13 13 13 12 12 11 10 10 9 9 9 9 10 10 9 11 11 10 9 9 9 9 9 9 9 7 8 7 8 7 9 10 9 8 8 8 7 6
1 2 2 1 2 1 6 0 0 3 1 2 3 3 1 2 0 1 1 2 2 2 1 4 1 3 4 4 9 9 4 6 4 4 4 3 2 1 1 1 2 3 2 4 5 6 7 8 8 8 8 9 8 8 8 8 11 14 13 12 12 12 12 11 11 10 11 10 10 10 11 8 8 8 11 9 10 10 9 7 8 6 8 7 7 9 8 7 8 9 9 8 8 8 8 7 6
2 4 1 2 4 1 3 2 2 1 2 1 3 2 2 1 3 0 1 0 4 7 2 3 4 0 5 7 11 2 3 4 6 4 3 2 2 2 1 1 1 3 3 4 5 5 5 8 8 8 9 9 9 8 7 8 9 12 11 12 12 12 11 11 11 11 10 10 10 10 10 8 7 6 9 7 11 9 10 10 8 7 6 2 6 8 9 8 8 8 8 8 8 8 7 6 4
3 1 3 1 4 0 3 1 1 2 0 2 1 0 3 2 4 2 2 2 1 5 7 4 4 5 8 9 4 3 4 7 6 7 4 4 2 3 3 4 3 7 6 6 4 4 5 5 7 8 7 10 9 8 7 7 7 9 8 7 8 9 9 9 9 7 7 6 10 8 7 7 6 6 7 7 7 9 10 12 10 9 7 4 4 9 9 8 9 8 8 8 8 9 7 3 2
2 1 2 5 3 5 1 1 4 4 3 0 1 2 4 2 1 2 3 5 4 6 9 4 9 9 6 5 9 2 5 4 7 5 6 6 6 7 7 6 6 4 5 6 6 6 6 6 5 8 9 9 10 9 7 7 8 7 8 8 7 8 8 8 7 7 5 6 6 6 7 6 7 7 7 7 7 10 10 12 12 10 9 7 4 8 8 8 9 8 8 8 9 8 4 2 1
3 4 3 5 5 3 7 2 4 1 1 2 4 3 3 6 2 1 2 6 5 6 9 10 7 13 9 5 3 2 5 6 5 6 7 8 7 8 6 7 7 8 8 8 9 6 6 7 8 7 8 9 9 8 7 7 8 8 8 7 7 7 7 7 7 7 7 7 7 6 6 6 6 6 8 13 10 7 8 11 12 11 10 9 7 6 8 7 9 9 9 9 7 4 2 1 1
2 3 4 4 4 1 4 5 5 2 3 0 1 2 4 4 2 1 5 6 9 8 8 10 14 13 12 7 7 3 4 5 6 6 7 7 7 6 8 9 10 10 10 6 5 8 9 9 8 8 7 8 9 8 8 8 8 8 8 8 8 7 7 7 7 7 7 7 8 7 6 6 6 6 6 6 6 6 6 6 7 6 6 5 7 4 5 5 6 4 4 7 4 4 3 2 2
3 7 6 6 3 3 7 5 4 1 1 2 1 5 5 1 4 3 3 6 11 8 7 8 12 12 9 10 9 6 5 3 4 7 9 10 10 10 8 6 6 5 3 6 10 8 10 11 11 9 7 7 9 8 9 8 7 7 8 8 8 7 8 8 7 7 7 8 7 7 7 7 7 6 6 6 6 6 6 6 6 6 5 5 5 6 6 6 5 6 6 6 5 4 4 4 4
3 3 4 6 4 3 2 3 5 5 3 4 4 3 1 2 4 4 5 11 13 11 7 9 12 11 10 6 4 6 6 6 6 6 7 8 8 9 9 8 8 7 7 8 8 8 9 9 10 8 9 8 9 8 7 7 7 7 7 7 9 8 7 8 8 8 7 7 7 7 7 6 6 6 6 7 7 6 7 6 6 6 6 6 6 7 6 6 6 6 6 6 5 4 3 4 4
5 5 2 6 3 5 6 5 5 4 5 5 3 0 2 3 8 1 3 13 14 13 9 10 12 12 6 6 6 7 8 7 6 6 7 8 9 11 10 9 8 6 5 6 6 7 8 11 9 8 8 8 6 6 7 7 6 6 7 7 8 8 8 8 8 8 8 8 7 7 7 7 7 6 7 7 7 7 7 7 6 6 6 6 6 6 7 6 6 6 6 5 5 4 3 4 5
4 3 1 3 4 4 5 5 6 7 8 6 6 5 8 6 6 2 12 15 16 14 8 8 11 11 10 7 7 5 6 6 6 6 6 7 6 6 4 4 4 3 5 6 5 5 8 9 7 8 7 8 7 6 6 6 6 6 6 7 8 7 8 7 7 7 8 7 7 8 7 8 7 7 8 7 7 7 7 7 7 7 6 6 6 6 7 7 7 7 6 6 6 4 5 4 4
1 1 1 2 4 5 6 7 9 11 8 4 6 10 8 9 3 5 16 17 16 12 7 8 7 8 9 7 6 5 5 7 11 14 12 12 16 18 16 13 12 8 7 4 1 6 4 5 7 9 9 9 8 6 6 6 6 6 6 6 7 6 6 6 6 7 7 7 7 7 8 7 7 7 7 7 8 8 7 7 7 7 7 7 7 8 7 8 7 6 6 6 6 5 6 5 5
0 3 2 3 6 6 6 6 11 8 5 5 6 12 10 1 3 8 5 11 12 7 8 7 5 5 8 7 5 6 15 14 11 9 17 15 16 14 13 15 14 10 10 12 10 7 2 5 6 7 7 6 5 6 6 6 5 6 6 5 5 6 6 6 6 6 6 7 7 6 7 7 8 7 8 8 7 8 7 7 7 7 7 7 7 7 6 7 7 7 7 7 6 7 7 5 6
1 3 5 7 8 8 11 11 15 5 5 6 8 12 9 0 2 10 12 13 10 7 8 6 6 5 4 5 7 13 12 9 10 15 16 15 11 10 13 13 13 12 12 12 9 8 3 4 7 6 7 6 6 6 5 5 5 5 4 4 5 5 4 5 6 6 7 7 6 7 7 6 6 7 8 8 8 7 7 8 7 7 7 6 7 6 6 6 7 6 6 6 6 6 6 5 5
3 2 5 7 6 6 11 7 10 3 6 3 6 2 9 1 4 11 12 6 7 6 5 1 3 4 5 5 13 12 10 10 12 13 11 8 8 9 11 12 12 11 9 10 12 10 11 5 3 5 5 5 6 6 7 6 5 4 5 5 4 5 5 5 6 6 6 6 6 6 7 6 6 6 7 8 8 7 7 7 7 7 7 7 6 6 6 5 6 6 6 5 6 5 5 5 4
2 1 2 5 4 6 15 5 8 5 3 6 6 2 7 7 8 8 8 4 6 11 13 7 6 6 5 11 10 11 12 13 15 11 9 9 9 10 11 10 11 9 9 9 13 15 10 7 4 1 4 6 6 5 4 5 4 3 3 4 4 5 5 5 5 4 5 5 5 6 6 6 6 6 7 6 6 6 6 7 7 7 6 7 7 6 7 6 7 6 7 6 6 6 6 6 6
3 1 3 3 2 5 9 2 3 2 1 1 5 4 7 11 7 5 7 4 5 8 11 7 6 6 9 10 10 10 12 12 12 13 12 12 11 10 10 10 11 11 10 12 13 12 12 11 8 6 4 1 2 3 3 4 3 3 3 3 3 4 4 4 4 4 4 4 5 5 5 6 6 6 6 8 6 6 6 6 6 6 6 6 7 6 7 6 7 7 7 7 5 6 6 6 6
3 2 4 2 5 7 10 9 4 5 0 2 3 3 8 10 13 5 6 6 4 6 9 7 6 8 11 8 9 9 9 10 12 12 13 12 12 11 12 12 12 11 12 10 11 12 13 13 11 8 8 7 4 4 4 3 2 3 3 4 3 3 3 3 3 3 4 3 4 4 4 5 5 5 6 6 7 6 7 6 6 5 5 6 6 5 5 7 6 6 6 7 7 6 6 5 5
2 4 3 4 2 5 5 5 2 3 4 1 4 7 2 6 10 10 5 5 7 5 6 7 10 11 9 9 9 8 9 10 12 14 15 12 12 11 12 13 12 11 11 12 12 12 13 13 13 12 10 7 6 6 6 5 6 5 4 4 3 3 4 3 3 3 3 4 4 4 4 5 4 4 5 5 7 6 6 6 6 6 5 6 6 5 6 5 6 6 4 5 7 7 6 6 4
4 1 5 4 4 3 3 7 3 1 5 3 3 3 7 7 6 14 15 6 5 5 5 5 9 9 8 9 10 10 11 12 15 14 14 13 11 13 12 11 12 11 10 11 11 10 9 10 10 12 12 10 7 7 6 6 6 7 6 6 6 6 5 4 3 4 3 4 4 4 4 5 5 4 5 5 5 5 6 6 5 6 6 6 7 6 7 4 4 6 6 4 5 6 6 7 6
4 3 3 6 2 2 4 3 2 2 0 3 3 6 9 9 8 11 16 15 3 2 4 9 9 9 9 9 10 11 11 14 12 11 12 12 13 11 11 11 11 12 11 12 13 12 11 11 11 13 12 11 9 7 6 7 6 6 6 7 7 6 6 7 6 7 6 5 3 2 3 4 6 5 5 5 6 6 6 6 6 6 6 7 7 7 6 5 5 5 7 6 3 6 8 6 6
6 6 6 4 5 4 6 7 3 3 3 4 6 9 7 6 10 12 13 13 4 4 10 8 9 9 9 9 9 9 10 11 7 9 9 11 10 11 10 10 10 10 11 12 13 14 13 13 11 12 12 11 9 9 9 8 7 7 7 6 7 6 6 6 7 6 6 6 4 4 2 1 1 3 4 5 6 6 5 6 7 6 6 7 7 7 7 7 9 7 7 7 6 2 2 6 6
6 4 3 7 6 5 6 4 6 1 2 5 8 6 3 5 7 9 13 8 5 6 8 9 7 8 9 9 9 9 10 9 5 7 10 10 10 10 9 9 9 11 12 13 14 14 13 11 11 12 9 10 9 8 7 8 7 7 7 7 4 5 5 5 6 6 7 6 5 4 4 2 0 0 1 3 4 5 5 5 5 5 5 6 7 9 8 8 7 8 8 6 8 5 4 4 6
7 7 6 8 3 8 4 5 2 1 2 4 3 1 4 6 8 12 11 4 3 8 10 9 10 9 8 9 9 9 7 4 6 10 11 10 10 10 9 9 11 14 13 13 13 12 11 12 12 10 10 9 9 6 5 6 5 3 5 4 6 6 7 7 6 6 6 6 6 6 5 5 4 3 2 1 1 2 3 4 5 6 6 7 7 5 5 6 6 5 5 5 5 9 7 8 8
4 5 4 2 6 5 5 7 5 2 3 7 3 1 5 8 9 15 7 4 3 3 5 8 10 9 8 8 9 7 8 8 9 10 9 10 10 10 9 10 11 11 11 13 11 12 13 12 11 9 9 9 9 9 9 6 5 6 6 4 4 3 3 4 5 4 5 6 6 5 5 4 3 3 4 3 1 0 1 2 3 3 5 5 5 5 5 6 7 8 8 8 6 3 3 6 10
5 5 3 7 4 1 6 5 3 0 2 2 2 5 6 6 9 5 5 8 7 8 9 9 7 10 9 8 6 8 9 8 11 9 9 9 9 9 10 10 10 9 10 11 12 12 10 11 10 10 9 9 9 9 8 7 8 7 7 7 7 7 4 4 6 7 7 7 7 5 5 4 4 3 3 3 2 1 1 1 1 1 3 3 5 6 6 7 6 6 7 8 7 6 4 8 9
3 4 4 4 5 4 7 5 3 2 4 0 2 4 4 6 10 1 2 6 10 8 11 10 8 7 8 7 9 8 9 8 9 8 8 8 9 9 9 9 8 10 10 11 11 10 8 10 10 10 9 9 9 10 9 8 10 10 9 10 9 9 9 9 7 7 5 4 3 5 5 4 4 4 4 4 3 3 3 1 0 1 2 3 3 4 5 7 8 8 9 8 8 9 8 5 8
2 4 8 7 6 7 5 2 2 5 5 1 1 3 3 6 11 5 7 3 6 3 9 8 7 6 5 9 9 7 7 7 8 8 7 6 6 8 10 10 11 11 11 10 9 10 10 10 11 11 10 9 10 9 9 9 9 10 10 10 9 8 8 8 8 6 5 3 1 2 3 4 4 4 4 4 4 4 4 4 1 0 2 3 3 5 5 4 5 6 7 8 9 8 8 6 6
0 7 4 8 8 6 3 2 1 2 2 2 1 1 8 3 4 3 5 6 6 4 6 6 5 6 6 7 6 6 6 7 7 7 7 9 9 10 11 12 11 12 10 7 8 9 10 9 9 10 9 8 9 9 10 8 10 9 10 8 7 7 7 6 5 6 7 6 2 3 1 2 2 3 4 4 4 4 4 4 4 2 2 3 4 4 5 5 6 7 6 6 8 8 4 7 9
5 2 1 3 3 3 2 2 4 5 2 4 2 2 6 7 5 7 11 5 7 6 5 5 5 6 6 6 6 5 5 5 7 8 8 8 10 10 11 9 9 9 7 7 8 8 10 10 10 9 8 9 9 9 10 9 10 10 10 9 8 8 7 6 7 7 7 8 9 9 6 3 2 1 2 4 4 4 4 5 4 4 3 3 3 4 6 6 5 4 5 6 6 6 7 8 8
4 1 4 2 2 2 2 2 1 2 3 8 2 2 1 6 6 9 12 4 3 4 5 5 6 5 6 6 5 5 5 5 5 7 9 9 9 9 7 8 7 7 8 8 8 8 8 9 9 9 11 11 10 10 10 11 11 10 10 8 9 7 7 7 6 8 8 8 9 9 9 9 8 5 2 2 3 4 4 4 4 4 4 4 2 4 4 4 5 6 6 6 7 7 7 6 5
3 2 3 3 2 2 1 1 1 3 1 7 5 6 4 9 3 5 1 2 5 7 7 7 5 6 6 5 4 4 5 6 6 7 7 8 7 6 5 5 7 7 7 7 7 8 8 8 11 12 12 10 9 10 11 13 13 11 12 11 11 9 9 8 8 9 8 8 9 9 8 8 8 10 9 6 5 4 4 4 4 4 4 5 4 4 4 4 5 5 5 6 6 8 6 7 9
2 4 1 4 5 2 2 4 2 3 2 9 7 9 7 5 5 5 3 5 7 8 6 6 6 6 5 5 4 3 4 5 5 5 6 7 6 7 6 7 6 7 6 7 8 8 8 9 9 12 10 9 9 9 11 12 12 12 11 11 11 10 9 9 10 10 9 9 9 9 8 7 8 7 8 9 9 9 8 5 4 4 4 4 5 5 5 5 5 5 6 5 5 7 7 8 8
2 1 2 5 5 5 3 3 4 2 7 6 8 9 8 5 6 4 3 7 9 18 16 13 11 8 6 5 5 4 4 4 4 5 6 6 6 7 6 7 7 7 7 8 8 8 8 8 8 10 10 9 8 8 11 12 11 12 11 11 11 9 9 8 10 9 9 9 9 9 8 8 9 8 8 8 8 9 9 8 5 4 4 4 5 5 5 5 5 5 5 5 5 6 6 7 7
4 4 5 2 4 3 1 2 1 6 8 3 1 4 1 10 7 0 4 7 5 5 9 14 13 11 8 6 5 4 4 4 5 5 5 4 4 5 6 6 7 7 6 7 8 7 7 7 8 10 10 8 8 8 11 11 12 12 11 11 9 8 9 9 8 9 7 8 8 8 9 9 8 9 8 8 8 9 7 9 9 7 5 5 4 5 6 6 5 5 5 5 6 6 7 7 7
5 4 4 4 1 2 3 5 2 3 5 6 1 3 3 3 4 6 3 5 5 12 12 11 11 10 9 7 5 5 4 4 4 4 4 3 3 4 5 4 3 3 4 6 6 6 6 6 6 8 7 7 7 9 9 11 11 11 10 9 9 8 9 8 8 8 8 7 7 7 7 7 7 8 8 8 8 7 7 7 7 6 5 5 5 5 5 5 5 6 5 6 6 7 5 6 7
9 4 10 9 6 3 3 3 5 4 4 2 4 1 4 3 1 3 4 5 10 10 11 9 9 8 7 6 6 5 5 4 4 4 3 4 4 4 3 1 1 1 3 4 4 4 4 5 6 7 8 8 8 8 9 11 10 10 9 8 8 7 7 7 7 6 7 8 7 8 7 7 7 7 7 7 8 8 8 8 7 7 7 7 6 6 6 5 5 5 5 6 6 6 6 6 6
2 3 3 1 6 3 5 3 2 2 1 4 2 5 3 3 2 3 3 8 10 9 10 9 8 6 6 6 5 5 4 4 4 4 4 4 3 3 2 1 1 1 3 4 4 3 4 4 5 6 6 6 7 8 9 9 9 8 9 10 9 8 7 6 7 7 7 6 7 7 7 7 7 7 7 8 9 7 8 8 8 8 7 7 7 7 6 5 5 5 6 6 7 6 6 6 7
1 5 4 5 2 3 1 4 2 1 0 8 2 6 2 2 2 3 3 8 7 6 7 7 7 5 5 5 4 4 4 4 4 4 3 4 3 2 2 2 1 3 4 4 3 3 4 4 5 7 7 7 8 8 8 8 7 8 8 7 6 7 7 7 7 7 7 7 6 6 7 7 6 6 7 6 8 8 8 8 7 7 7 6 7 7 6 6 5 4 5 6 7 7 6 7 7
5 2 5 2 1 2 2 4 2 2 6 4 1 4 4 1 6 2 3 7 4 5 6 6 6 5 5 4 4 5 4 4 4 4 3 3 3 3 3 2 2 3 4 3 4 3 4 4 5 6 6 8 6 6 6 5 5 5 5 5 5 4 4 5 5 5 5 6 7 6 6 8 7 7 6 7 7 8 8 9 8 9 8 7 6 6 6 6 6 6 5 5 6 6 6 7 6
2 2 1 0 3 3 2 3 4 4 6 4 3 10 9 8 6 4 5 8 8 6 5 5 5 5 5 5 4 3 4 3 3 3 3 3 4 3 3 2 2 3 4 4 4 5 5 4 4 4 5 5 4 4 4 4 2 2 1 2 2 3 3 4 3 4 4 5 6 6 6 5 6 7 7 8 8 8 8 9 7 8 8 9 8 8 6 6 5 6 6 6 6 6 6 7 7
2 2 1 1 2 4 3 4 3 3 8 6 4 7 6 2 1 9 9 9 10 8 8 6 6 6 6 5 4 5 5 4 4 4 4 4 4 4 4 3 3 4 4 4 4 4 4 4 4 4 3 4 4 4 4 4 2 1 3 2 3 2 3 2 2 2 4 3 4 4 5 5 6 6 6 6 7 7 8 9 9 9 9 8 8 8 7 7 7 6 6 6 7 5 6 7 8
1 1 2 1 1 3 2 3 3 3 3 5 7 7 4 1 1 4 10 12 12 12 10 7 6 7 5 6 8 6 6 5 5 5 4 4 4 3 3 3 4 3 3 3 4 3 1 2 3 2 3 3 4 4 4 4 3 3 3 3 3 4 4 3 4 2 3 3 3 3 4 3 4 6 5 6 5 6 7 7 8 8 8 9 9 9 8 7 7 7 7 6 6 6 6 7 7
3 3 3 4 1 4 5 9 1 1 5 4 6 11 3 1 3 3 3 6 8 7 10 8 8 8 10 9 6 7 7 6 5 4 4 3 3 2 3 3 3 4 2 2 1 2 1 1 0 1 1 1 1 1 3 4 4 4 5 4 4 4 4 5 5 4 4 4 3 4 4 4 4 4 4 6 6 5 5 7 6 7 8 8 9 9 9 8 8 8 7 6 6 7 7 8 6
Wind_Direction
309 304 289 273 265 344 48 7 58 311 64 315 332 45 199 14 157 51 48 8 36 265 192 276 8 8 114 192 191 191 211 152 208 116 223 233 297 196 179 190 127 134 147 156 162 164 169 167 168 165 167 165 164 165 166 161 162 162 163 164 162 164 163 164 163 166 164 158 152 151 149 150 152 151 151 146 143 141 137 135 130 110 113 100 106 110 110 105 93 84 81 79 76 70 68 70 70
298 313 305 293 298 57 302 115 104 2 36 24 317 98 300 319 48 75 95 111 199 202 228 163 275 227 342 322 176 286 304 201 168 179 209 240 15 93 187 180 135 141 147 154 160 165 169 171 169 167 168 168 166 166 164 164 166 167 167 168 169 169 169 167 168 170 166 163 160 157 155 155 155 154 154 152 147 145 143 142 137 134 125 125 120 114 107 102 94 85 79 79 75 71 70 67 63
311 339 340 8 29 76 272 50 52 92 71 66 305 189 327 50 91 118 141 161 185 184 196 356 166 33 337 43 22 130 266 284 84 44 119 308 95 238 206 191 147 141 148 156 160 164 170 176 173 169 169 170 168 166 164 167 168 165 170 169 170 174 174 171 173 174 171 170 168 166 163 162 161 159 159 154 151 147 147 150 145 132 137 133 128 124 118 100 91 89 82 72 72 65 60 61 59
306 278 343 40 338 25 60 27 102 117 102 187 11 327 53 114 31 149 195 197 165 113 58 34 77 243 122 351 215 117 259 6 189 148 123 238 200 194 189 184 161 134 144 155 163 164 169 179 176 171 172 172 169 169 168 167 167 168 171 172 175 178 178 172 177 178 177 177 174 172 171 168 164 162 157 156 152 146 147 146 144 138 136 132 128 127 117 97 91 89 85 86 74 65 57 55 55
336 308 144 67 99 356 85 170 120 96 38 206 136 276 76 108 60 9 343 101 120 105 89 174 50 307 190 242 225 128 225 246 350 136 152 242 218 161 180 186 150 137 151 161 162 163 171 177 179 173 175 176 172 171 169 168 170 170 172 174 178 182 179 179 179 182 182 183 181 180 179 173 168 166 159 157 148 144 142 149 146 142 137 137 140 126 108 100 97 94 91 88 86 69 54 55 55
307 348 336 98 96 174 43 34 343 340 223 157 91 244 176 144 86 20 9 58 37 101 143 71 159 283 344 239 183 147 186 82 182 98 147 218 176 167 177 174 145 144 154 160 164 163 171 176 180 176 175 176 176 173 170 170 173 173 173 176 179 182 182 183 182 185 187 188 185 188 186 180 172 169 161 154 148 145 142 138 134 144 137 138 128 129 123 115 106 100 93 84 76 77 57 61 59
324 23 355 20 353 61 153 119 249 209 277 153 169 160 127 99 121 65 333 40 352 50 17 147 82 27 20 291 339 257 308 245 89 198 164 180 160 158 170 176 133 159 151 160 163 164 169 174 179 178 177 177 177 173 173 173 177 176 176 177 180 183 183 186 186 187 190 190 191 194 190 182 177 172 163 156 152 146 142 140 141 137 134 131 136 138 135 125 119 112 92 83 93 79 74 68 62
218 93 304 90 288 49 17 176 283 155 279 153 174 115 114 130 114 75 297 86 258 129 285 262 120 110 254 354 232 273 340 11 146 122 142 138 148 162 167 168 150 178 155 155 163 162 169 172 178 180 177 178 178 175 174 174 180 179 180 179 182 185 187 188 189 190 190 192 193 198 196 186 181 172 165 160 157 150 140 137 145 143 144 127 106 109 183 152 155 137 113 97 98 94 82 70 70
343 87 337 68 20 14 27 290 260 245 259 2 33 99 103 141 106 117 346 266 4 118 141 212 162 71 256 347 225 271 313 348 91 125 137 140 147 167 164 172 162 169 176 145 163 159 167 174 178 180 179 179 179 177 177 177 180 181 184 184 186 189 190 192 192 193 195 193 195 199 197 176 185 180 168 164 156 152 140 140 136 157 144 137 133 102 77 18 89 114 113 112 114 104 86 79 79
354 95 333 114 129 349 357 311 52 274 272 293 105 136 102 88 17 82 170 340 225 54 216 150 151 165 278 298 303 313 231 173 92 87 157 153 154 159 166 186 174 159 176 140 152 160 168 177 177 179 181 182 181 178 179 180 182 179 184 189 189 192 193 193 197 198 198 198 199 198 199 178 184 188 174 164 162 159 148 153 138 144 156 152 146 120 104 108 125 116 126 130 129 108 96 94 90
357 5 142 62 29 22 358 280 273 316 326 310 53 326 117 93 73 355 15 268 7 26 288 56 22 272 81 268 219 251 73 140 133 191 205 174 158 161 176 195 175 158 166 147 146 156 167 178 180 179 181 183 183 181 181 182 183 182 182 187 190 191 195 196 200 201 203 204 204 202 195 186 185 182 169 161 156 153 157 156 149 158 161 152 164 182 184 193 129 145 150 145 124 111 108 102 91
19 3 10 91 170 161 244 313 303 301 330 10 21 335 299 105 73 34 354 23 325 353 30 99 242 167 280 290 289 271 141 179 207 210 200 173 162 178 178 184 136 164 158 146 144 156 162 169 182 185 180 183 184 184 185 185 187 185 184 187 190 192 192 196 202 204 204 208 210 201 201 188 186 176 165 165 165 165 163 159 156 165 180 179 175 225 170 148 168 163 127 124 122 121 118 105 91
97 77 63 78 238 9 268 352 277 313 355 343 195 285 331 63 101 162 57 1 328 13 307 226 225 75 301 220 253 334 192 229 199 165 171 158 182 159 179 153 154 137 155 142 144 157 163 169 178 185 188 184 185 185 187 189 191 190 187 189 192 191 191 192 197 204 209 211 211 207 199 184 193 180 174 172 168 168 165 162 166 173 183 189 199 201 181 166 170 151 124 131 136 133 129 118 103
98 322 120 282 25 324 314 262 359 39 323 260 254 266 314 111 241 140 92 350 297 307 229 214 347 151 269 337 314 296 248 234 183 167 160 198 184 134 119 182 167 136 159 150 151 159 166 174 177 182 184 187 187 188 190 190 193 193 192 192 194 192 190 190 191 196 202 208 211 207 193 185 196 184 178 175 173 166 163 165 167 178 199 209 192 164 169 173 154 167 130 136 140 142 136 127 120
31 130 81 131 317 38 266 92 200 169 316 214 239 140 355 271 146 60 137 241 274 210 275 282 192 86 255 75 288 245 230 195 173 152 104 101 117 146 99 181 177 176 172 172 160 160 174 174 180 181 185 186 187 187 188 194 192 195 193 194 195 193 190 190 192 190 193 199 200 196 187 185 195 185 176 167 167 162 161 160 172 186 201 210 164 160 165 174 163 143 139 140 145 144 138 131 129
135 76 84 50 286 65 282 95 346 68 294 192 307 142 76 319 127 95 259 176 250 271 26 271 347 200 241 264 253 235 231 162 158 116 99 99 83 62 133 65 178 203 197 201 190 181 174 177 180 183 186 189 189 190 189 188 194 193 193 192 194 192 190 191 191 190 189 190 193 186 180 178 179 167 163 163 159 158 158 157 175 182 192 188 180 169 171 185 169 145 141 145 152 147 137 129 130
47 81 38 30 304 128 265 59 42 314 259 298 292 21 58 323 321 213 210 179 305 281 287 214 216 185 244 241 249 235 143 125 113 108 103 122 115 145 188 238 266 257 235 232 213 208 184 182 184 184 191 191 192 190 191 192 193 192 192 191 191 191 190 190 191 190 188 190 187 184 169 166 168 167 169 166 159 160 159 162 165 172 181 204 167 163 181 184 177 149 146 151 155 138 118 117 116
58 72 115 283 211 247 232 344 290 213 303 275 7 136 88 359 337 287 4 314 294 287 295 268 278 244 236 252 297 108 154 144 149 140 171 179 162 180 215 233 200 216 221 229 238 222 206 199 190 189 190 195 192 192 194 193 188 189 189 189 191 191 190 189 190 188 188 187 186 177 168 166 163 163 166 162 160 161 160 160 161 167 172 114 170 164 176 191 179 171 160 159 157 116 97 67 50
113 152 104 216 202 234 178 243 338 9 307 279 348 20 49 268 23 281 323 285 284 304 288 306 294 275 266 285 274 136 138 158 169 180 176 187 195 199 210 214 222 232 242 235 236 215 209 207 192 193 195 195 194 195 196 193 187 184 188 186 185 186 186 185 184 184 182 183 181 175 173 168 164 159 160 161 160 164 164 163 163 164 157 134 143 155 166 188 183 177 171 171 128 111 94 96 82
236 123 221 246 215 262 309 311 315 100 212 44 3 314 3 285 322 314 257 267 303 268 280 302 281 284 286 278 283 160 169 188 191 194 202 209 204 207 210 213 221 222 222 209 212 210 200 204 209 195 196 192 190 197 196 191 189 184 188 185 182 183 183 183 182 180 181 182 179 174 174 168 162 159 160 159 155 159 167 165 164 162 149 141 145 153 168 187 167 181 180 144 117 106 117 132 120
264 97 190 230 225 343 280 314 319 315 68 201 310 304 337 298 251 338 272 305 278 262 240 236 266 273 282 280 298 287 186 206 213 213 226 230 225 221 213 208 205 214 214 196 195 206 204 205 202 207 191 192 191 194 196 195 190 184 188 188 186 184 184 182 184 182 182 183 178 174 172 165 162 159 156 155 156 153 155 162 163 158 147 144 140 141 137 139 134 141 115 107 132 141 141 186 178
119 204 204 209 289 302 268 284 319 340 339 38 301 343 273 284 330 268 255 253 268 258 251 237 246 259 266 287 290 299 289 260 217 212 230 228 221 225 234 248 249 238 159 171 203 203 206 203 199 202 188 190 194 192 196 195 182 187 189 190 187 189 186 184 186 187 185 183 176 174 168 168 165 161 160 158 154 156 157 161 165 156 149 153 144 145 139 132 120 121 131 140 162 176 179 194 204
238 295 243 225 226 242 275 303 296 310 306 305 311 254 353 299 272 260 258 248 259 260 254 261 265 263 264 275 283 300 293 274 271 254 221 229 236 235 233 228 224 227 186 208 198 206 204 202 204 194 200 194 192 192 193 187 196 192 189 186 186 192 187 186 190 189 188 181 175 173 170 175 168 161 162 161 161 163 164 165 163 162 159 157 160 148 150 143 139 142 146 159 175 203 212 205 199
203 243 280 273 226 249 283 301 318 305 286 278 231 17 273 278 296 236 250 259 258 266 265 258 268 279 285 283 284 274 280 286 266 248 246 232 216 222 220 221 223 219 171 217 203 203 190 203 200 186 202 198 201 189 186 191 193 186 192 187 194 188 185 194 193 192 185 184 176 177 177 173 165 162 166 166 169 164 169 168 162 163 161 163 161 156 151 149 148 151 156 163 179 208 211 185 147
199 260 281 292 349 293 315 298 305 300 287 273 313 286 253 231 240 346 273 274 278 275 268 272 273 282 289 285 281 280 285 293 292 289 304 294 288 267 270 268 241 177 209 218 211 189 202 200 186 193 194 200 197 185 189 191 188 181 180 188 195 186 191 194 192 189 192 188 180 177 177 177 174 166 169 175 160 172 167 167 166 167 162 164 159 170 163 160 159 161 166 174 183 195 192 169 139
359 271 346 321 309 307 294 304 288 279 283 274 293 269 262 253 317 274 258 271 271 280 302 272 275 285 286 281 282 276 289 335 0 19 21 24 30 29 13 10 4 353 327 331 186 203 202 190 188 195 193 194 192 177 197 182 189 192 184 192 195 183 196 187 182 187 193 187 192 183 184 180 179 171 171 169 167 172 169 168 168 168 169 168 169 175 180 165 166 164 168 177 181 187 184 175 145
310 332 323 306 282 315 295 287 284 271 262 263 257 277 269 282 122 284 268 254 273 308 297 294 295 283 283 298 306 356 34 37 37 23 30 25 26 23 10 11 12 2 15 13 351 312 237 167 203 199 196 189 172 186 189 192 174 194 197 180 169 190 193 178 185 187 187 192 193 190 185 185 177 171 171 172 173 166 168 168 176 169 172 183 179 176 174 175 164 172 175 174 179 181 182 170 154
0 343 341 331 318 313 286 284 275 292 284 225 209 254 270 264 153 249 272 278 295 306 295 315 333 336 311 297 20 48 50 31 30 38 30 25 21 13 16 11 0 1 11 357 349 343 331 218 191 199 191 181 173 189 184 188 187 189 191 182 181 179 174 183 184 182 187 191 186 187 186 189 182 176 170 172 172 168 168 171 171 175 184 182 184 169 169 174 170 169 167 171 172 169 166 167 160
280 344 327 294 319 317 274 260 269 154 253 191 172 288 302 218 220 241 256 298 308 305 292 359 342 319 321 352 57 48 43 35 36 39 30 22 22 22 25 14 10 5 358 352 343 359 4 321 225 192 183 172 178 187 188 192 182 167 165 184 186 170 172 172 179 182 186 186 182 182 185 183 184 170 179 172 170 169 167 168 174 183 176 172 180 172 160 163 160 160 171 161 159 158 156 171 154
349 0 166 315 346 309 276 271 256 239 250 148 115 266 267 260 221 257 278 327 336 339 325 342 341 329 322 52 63 53 40 34 35 32 25 21 20 23 26 17 16 17 2 351 356 358 342 359 342 249 166 172 187 177 161 170 180 164 149 164 170 168 171 171 175 172 174 179 178 182 180 178 180 170 164 168 165 165 170 173 172 179 175 172 168 163 167 166 164 162 169 159 168 164 174 173 159
247 253 108 215 7 269 280 215 325 84 309 169 126 208 266 283 269 257 278 283 353 313 304 322 322 318 39 74 61 59 48 44 36 29 25 22 20 20 21 18 19 19 12 10 3 347 352 4 13 15 29 73 136 140 145 160 154 140 130 137 157 167 164 169 169 149 154 165 161 175 175 174 176 162 163 160 169 165 167 173 177 178 164 162 163 174 163 172 162 171 161 167 165 170 172 175 168
258 28 294 312 169 272 290 295 216 217 242 17 121 274 236 259 282 266 263 297 314 303 298 313 333 35 71 62 62 54 55 44 39 33 27 26 22 21 20 16 13 17 21 12 6 360 6 6 11 32 32 28 38 61 60 77 106 114 104 119 122 136 137 148 159 157 145 128 136 155 169 167 165 155 155 156 160 168 168 172 175 150 159 154 161 164 160 171 172 166 178 159 161 183 168 177 162
313 184 252 271 176 249 333 300 39 141 115 324 171 232 323 303 274 283 261 285 304 301 310 318 52 69 59 58 55 52 43 38 38 31 25 24 25 23 21 14 10 13 20 20 14 7 9 6 14 16 14 22 28 42 54 49 53 54 53 59 81 90 97 106 108 109 106 111 120 138 145 152 153 140 146 154 155 162 164 166 162 160 153 157 159 166 171 167 164 169 177 183 167 170 176 160 160
299 228 217 214 232 282 258 302 347 65 119 215 267 259 239 253 295 294 295 280 289 320 307 33 78 71 66 63 55 49 45 38 33 22 20 22 22 23 21 15 8 7 17 21 20 19 12 11 20 24 19 12 22 44 46 52 46 50 46 50 50 54 51 58 66 83 90 114 121 139 149 149 142 131 139 146 151 159 161 163 162 161 159 158 161 165 179 157 163 161 175 196 170 153 177 168 168
228 270 272 294 280 244 245 294 261 121 273 215 259 242 261 270 282 287 285 292 328 322 17 87 85 76 68 64 60 52 49 46 34 27 23 22 23 18 20 16 14 11 13 18 23 21 23 21 21 23 21 18 15 15 34 42 40 40 45 46 48 40 38 42 41 43 30 42 60 125 142 143 147 136 141 149 152 157 157 161 166 171 165 161 162 170 165 165 166 180 175 186 183 182 171 180 163
230 219 231 233 250 274 273 251 249 181 266 244 247 250 258 260 267 270 280 283 31 17 87 89 87 82 80 73 64 59 54 51 36 33 31 30 25 19 17 17 20 18 17 19 25 26 25 23 23 24 18 14 20 28 28 27 30 34 33 18 38 33 37 41 41 48 44 53 42 39 46 71 115 136 145 158 157 160 163 174 178 172 171 164 168 173 182 180 183 179 192 177 178 183 172 157 140
240 252 254 247 246 273 271 263 264 149 264 244 243 249 255 270 261 268 270 306 356 76 96 96 92 94 86 81 76 71 59 52 29 38 38 34 26 19 18 22 23 27 25 22 28 27 27 23 25 24 10 16 25 21 29 41 36 25 26 24 22 16 34 39 41 34 46 38 38 43 40 39 54 78 99 136 167 166 175 168 171 177 172 177 180 192 189 191 188 182 180 179 170 173 187 175 167
234 243 244 261 220 257 239 270 272 172 198 280 269 352 296 275 279 283 285 2 8 129 116 107 105 94 88 86 83 71 70 62 39 38 33 33 27 22 23 26 24 31 24 25 29 28 26 24 26 17 13 16 22 23 34 53 48 76 84 47 59 34 33 41 29 27 48 52 47 41 34 21 21 17 20 45 92 158 160 165 182 185 178 192 198 189 184 189 180 182 165 186 206 180 190 179 176
241 215 212 276 272 264 286 273 270 287 147 262 304 292 271 275 280 277 319 69 57 55 105 116 113 102 94 85 83 80 70 57 47 42 34 31 25 24 29 31 30 30 27 28 24 28 27 25 22 18 13 14 13 17 35 37 31 34 53 40 60 70 51 62 70 50 58 58 46 48 49 43 35 19 12 16 12 327 231 168 206 196 194 187 181 189 189 194 193 187 182 185 199 235 185 190 183
253 272 263 256 241 335 303 298 12 272 171 261 261 278 269 280 270 317 17 104 86 84 88 89 87 104 100 93 89 87 74 65 53 41 31 23 24 25 29 33 30 32 33 30 27 27 26 24 21 16 14 14 17 17 25 32 45 50 53 46 31 58 43 14 34 25 26 32 25 22 29 34 33 23 12 10 360 352 323 256 300 207 220 206 199 194 194 204 198 196 195 204 176 187 199 208 210
274 195 204 238 261 225 195 255 312 304 309 341 288 309 314 248 260 96 10 86 98 95 93 87 78 82 94 97 78 65 76 65 62 49 37 28 26 29 30 29 27 38 35 34 29 29 30 27 21 17 14 14 19 23 27 31 39 41 34 36 39 30 26 25 22 14 15 21 17 8 349 14 21 11 358 353 352 330 344 343 137 232 249 239 226 219 208 210 205 202 198 197 192 192 211 211 221
297 231 198 221 232 243 246 303 23 10 327 319 127 355 301 241 233 186 179 118 100 118 99 93 91 82 80 76 76 73 67 64 66 58 51 38 35 34 33 29 33 33 33 26 28 29 29 29 27 22 18 15 16 21 26 40 50 54 48 45 36 31 31 23 17 1 4 12 342 314 359 10 17 9 3 353 344 341 327 329 354 167 222 225 223 228 227 233 229 222 213 205 208 218 204 193 213
36 269 210 224 231 226 190 233 65 314 234 300 70 255 275 307 261 256 197 140 129 95 85 99 87 84 74 76 76 67 68 69 65 63 46 46 37 37 33 31 25 30 25 17 27 31 32 35 34 32 27 20 13 20 24 35 50 53 60 63 60 52 42 16 8 17 10 347 355 33 356 354 22 11 341 1 352 341 334 327 324 309 233 229 225 229 236 227 226 222 220 217 217 219 194 202 209
240 246 132 108 124 143 203 160 172 236 246 300 352 133 252 279 253 251 259 221 133 113 96 78 80 78 76 77 73 70 63 60 75 71 60 49 43 37 35 25 25 25 18 23 30 30 34 33 37 35 34 30 24 17 30 33 52 50 49 48 47 41 40 24 15 10 16 15 15 0 352 344 339 10 347 339 348 344 341 326 324 320 311 268 243 229 232 234 236 241 228 230 232 226 215 215 212
219 242 122 107 136 159 130 142 163 231 5 290 277 171 295 261 261 244 233 146 167 131 124 116 101 96 92 84 80 82 75 68 60 66 65 58 47 36 28 28 18 26 26 30 28 29 33 34 38 40 40 33 23 21 28 38 48 52 54 48 46 34 30 26 15 23 22 13 21 11 14 360 344 334 340 333 328 339 333 320 321 324 316 303 270 270 263 255 242 237 235 231 226 230 220 226 219
263 164 74 81 73 69 87 101 85 338 39 263 198 192 199 279 260 270 319 170 190 173 148 131 125 115 105 94 79 76 73 65 54 57 60 60 57 48 26 22 29 25 23 28 31 32 32 32 36 39 38 33 24 22 29 39 44 46 48 44 47 36 29 27 30 24 20 15 19 12 9 10 7 5 345 335 335 325 324 319 320 313 305 304 308 275 276 276 267 255 243 235 232 233 228 221 224
114 78 49 3 25 26 37 74 96 46 289 246 194 211 177 276 274 230 163 205 171 124 127 129 122 104 97 91 84 70 72 66 64 63 58 55 53 49 31 31 22 22 22 29 32 34 31 33 33 40 33 31 24 25 30 38 42 44 45 41 41 38 31 34 32 27 20 21 19 12 10 4 12 10 9 3 358 345 327 315 301 294 310 308 309 306 285 269 269 262 257 250 245 236 233 233 234
110 65 105 23 339 18 36 353 41 127 262 263 226 211 184 182 283 298 307 318 157 159 157 151 132 119 107 98 91 74 60 67 65 60 51 50 46 42 36 33 24 19 24 29 29 29 34 34 37 46 35 26 24 26 37 40 43 44 43 38 37 33 33 34 36 31 20 22 18 13 6 12 8 4 10 5 1 354 352 329 314 318 312 312 304 297 296 287 283 281 275 261 254 247 248 244 242
83 75 50 92 275 40 322 56 274 210 220 246 254 161 69 243 229 107 20 340 28 69 127 136 130 125 120 113 104 93 77 67 65 57 52 44 54 54 47 29 21 16 20 28 27 25 27 33 35 48 37 23 25 26 40 41 44 43 41 36 32 28 31 34 34 33 22 24 16 14 14 11 1 9 2 360 354 352 348 352 336 319 317 312 306 311 299 299 295 290 283 277 268 258 245 237 238
117 152 138 100 220 222 244 250 222 300 298 245 146 140 224 243 294 42 47 22 49 98 103 110 119 122 124 118 108 101 92 89 82 78 73 63 62 53 47 33 11 4 23 33 34 32 25 35 32 47 39 27 26 35 37 44 44 43 41 39 34 29 29 30 30 31 23 25 20 20 18 10 5 2 354 354 344 345 353 347 346 336 327 319 314 307 303 300 303 297 291 288 279 270 267 256 248
202 133 157 185 155 152 233 211 216 215 213 266 271 36 231 171 206 18 52 56 72 80 95 104 106 114 116 120 115 111 109 107 114 109 110 93 68 65 63 46 14 29 43 45 44 37 37 42 41 45 45 29 33 35 37 41 39 37 35 36 35 31 29 30 29 27 25 22 18 21 15 10 13 356 355 341 346 352 351 351 351 346 338 331 324 318 310 310 307 309 302 290 292 282 275 267 265
228 167 94 77 242 150 212 209 168 228 308 307 282 205 203 125 124 90 64 79 75 85 94 103 103 105 115 107 117 130 135 131 124 111 96 96 99 98 109 159 183 113 79 74 66 63 63 56 52 53 51 40 37 38 38 40 38 37 34 31 26 24 22 22 24 22 21 24 18 22 11 11 3 353 351 352 350 355 350 351 350 347 342 339 329 318 310 308 307 312 304 303 296 292 288 282 271
277 104 213 208 178 115 339 338 250 82 54 254 192 301 357 108 78 58 79 80 83 89 96 101 109 113 111 127 142 143 145 136 124 126 132 123 124 151 162 165 144 102 87 88 103 107 92 72 56 48 39 36 35 32 36 32 34 38 31 32 25 26 24 27 23 15 11 9 16 11 12 359 356 3 350 353 349 349 350 350 345 341 340 337 336 330 317 306 304 303 295 294 293 289 289 283 281
86 162 239 271 110 130 133 212 304 219 222 250 165 243 281 195 281 134 106 103 134 125 135 132 135 142 134 151 157 157 152 152 157 155 155 156 159 165 169 168 132 124 120 95 74 67 68 71 65 54 43 40 27 31 29 30 26 35 31 26 21 24 28 23 25 18 11 14 6 7 2 4 359 347 352 342 347 346 345 349 347 342 339 338 338 331 331 319 312 305 292 286 276 284 289 288 278
174 186 259 89 275 312 302 97 257 260 246 278 252 247 251 221 227 144 200 159 173 166 150 143 145 152 159 166 169 170 163 163 164 173 182 186 174 168 160 148 135 116 122 103 68 52 43 44 52 65 53 42 29 24 21 14 28 10 23 10 29 14 20 30 17 22 20 18 6 360 358 347 347 349 348 350 347 345 345 340 345 338 337 337 334 334 333 330 323 309 300 294 292 290 286 283 280
57 56 15 209 112 183 250 201 187 202 272 267 273 210 252 219 187 170 196 186 168 159 164 170 171 172 182 182 181 188 184 186 192 189 195 188 183 174 160 138 113 102 93 92 80 60 54 55 60 52 42 30 27 20 14 9 341 9 336 352 345 350 5 13 16 40 25 19 358 355 346 351 341 333 340 342 343 341 340 340 338 339 335 334 333 327 332 329 329 317 306 303 290 291 288 281 282
319 29 315 332 268 222 147 306 196 183 215 235 265 263 266 278 245 218 196 179 172 165 165 165 173 191 196 197 189 194 195 198 199 191 184 160 148 128 106 108 103 81 79 82 94 91 92 63 58 78 82 26 30 2 12 354 350 349 7 352 341 356 355 347 356 5 18 358 349 348 341 322 335 341 335 335 334 333 330 329 328 331 332 331 332 328 328 327 324 319 313 300 298 294 285 280 276
145 165 214 186 240 297 271 264 108 134 225 239 249 261 264 260 8 333 142 147 143 155 151 162 185 194 201 200 200 195 200 205 196 190 164 148 123 106 75 68 70 67 50 71 112 90 49 80 205 95 91 136 60 354 10 349 354 349 360 345 347 0 6 1 353 343 344 345 344 339 323 343 343 318 336 323 324 324 324 324 326 323 326 325 324 325 323 327 322 318 312 308 302 297 291 286 281